Location: Augustenthal
(51.7167°N, 10.2833°E)
Time: 19:38:01
(UTC+00:00)

NOSS 2-1 (D) - Pass Details

Date: 18 May 2021
Orbit: 431 x 1770 km, 63.3° (Epoch: 26 May)

Event Time Altitude Azimuth Distance (km) Brightness Sun altitude
Rises 22:11:22 0° 313° (NW) 2,849 8.0 -17.2°
Reaches altitude 10° 22:13:20 10° 311° (NW) 2,073 7.1 -17.2°
Maximum altitude 22:17:59 70° 229° (SW) 867 4.1 -17.4°
Enters shadow 22:21:25 27° 151° (SSE) 1,726 5.2 -17.6°
